Location: Newark
(51.8850°N, 0.2350°E)
Time: 19:23:14
(UTC+00:00)

Envisat - Visible Passes

Search period start: 19 October 2019 00:00
Search period end: 29 October 2019 00:00
Orbit: 764 x 766 km, 98.1° (Epoch: 19 October)

Date Brightness Start Highest point End Pass type
(mag) Time Alt. Az. Time Alt. Az. Time Alt. Az.
19 Oct 3.5 18:10:05 10° S 18:15:07 64° WSW 18:20:12 10° NNW visible
19 Oct 6.3 19:54:30 10° W 19:55:12 10° W 19:55:53 10° WNW visible
20 Oct 3.0 17:33:18 10° SSE 17:38:21 68° ENE 17:43:25 10° N visible
20 Oct 5.6 19:14:05 10° SW 19:17:52 21° W 19:21:41 10° NW visible
21 Oct 6.2 05:37:44 10° NE 05:40:49 16° E 05:43:53 10° ESE visible
21 Oct 4.4 18:36:00 10° SSW 18:40:45 40° W 18:45:33 10° NNW visible
22 Oct 3.2 17:58:45 10° S 18:03:50 78° WSW 18:08:58 10° NNW visible
22 Oct 6.1 19:41:28 10° WSW 19:43:44 13° W 19:46:02 10° WNW visible
23 Oct 5.7 06:02:27 10° NE 06:06:39 25° E 06:10:49 10° SSE visible
23 Oct 3.1 17:22:09 10° SE 17:27:07 56° ENE 17:32:06 10° N visible
23 Oct 5.3 19:02:19 10° SSW 19:06:28 25° W 19:10:40 10° NW visible
24 Oct 6.3 05:27:06 10° ENE 05:29:23 13° E 05:31:39 10° ESE visible
24 Oct 4.0 18:24:31 10° S 18:29:25 48° W 18:34:22 10° NNW visible
25 Oct 3.0 17:47:28 10° SSE 17:52:34 87° ENE 17:57:41 10° NNW visible
25 Oct 5.9 19:29:14 10° SW 19:32:18 16° W 19:35:23 10° NW visible
26 Oct 5.9 05:51:27 10° NE 05:55:15 21° E 05:59:03 10° SE visible
26 Oct 3.3 17:11:04 10° SE 17:15:53 46° ENE 17:20:45 10° N visible
26 Oct 4.9 18:50:39 10° SSW 18:55:06 30° W 18:59:36 10° NNW visible
27 Oct 6.7 05:17:17 10° ENE 05:17:56 10° E 05:18:35 10° E visible
27 Oct 3.6 18:13:06 10° S 18:18:07 59° W 18:23:10 10° NNW visible
28 Oct 2.9 17:36:15 10° SSE 17:41:18 73° ENE 17:46:24 10° NNW visible
28 Oct 5.6 19:17:17 10° SW 19:20:53 19° W 19:24:31 10° NW visible
